Location: *
(57.8420°S, 159.8600°W)
Time: 02:50:29
(UTC+00:00)

Cosmos 1943 Rocket - Pass Details

Date: 18 May 2021
Orbit: 814 x 842 km, 71.0° (Epoch: 23 June)

Event Time Altitude Azimuth Distance (km) Brightness Sun altitude
Rises 05:51:06 0° 218° (SW) 3,427 6.0 -26.5°
Reaches altitude 10° 05:53:42 10° 226° (SW) 2,490 5.3 -26.8°
Maximum altitude 05:58:54 37° 290° (WNW) 1,304 3.6 -27.5°
Drops below altitude 10° 06:04:04 10° 356° (N) 2,476 4.6 -28.2°
Enters shadow 06:04:28 - 357° (N) 2,612 4.7 -28.2°
